Location: Pinhey's Point
(45.4411°N, 75.9539°W)
Time: 03:00:43
(UTC-04:00)

Daily predictions for brighter satellites

Satellite Brightness Start Highest point End
(mag) Time Altitude Azimuth Time Altitude Azimuth Time Altitude Azimuth
SL-16 R/B 3.9 02:56:28 33° NNE 02:56:28 33° NNE 03:00:16 10° N
Resurs 1-4 Rocket 4.4 02:51:59 10° NE 02:54:18 20° ENE 02:54:18 20° ENE
SL-16 R/B 4.3 02:52:59 10° N 02:57:30 23° NE 03:01:58 10° E
Cosmos 2227 Rocket 4.0 03:11:34 27° ENE 03:11:34 27° ENE 03:14:42 10° NE
ATLAS 2AS CENTAUR R/B 3.9 03:15:24 40° NNW 03:15:24 40° NNW 03:22:13 10° NNE
Cosmos 2297 Rocket 3.9 03:19:29 27° E 03:19:29 27° E 03:23:08 10° NE
Cosmos 2344 3.6 03:27:45 78° E 03:27:45 78° E 03:36:15 10° NE
Lacrosse 5 3.7 03:33:01 27° ENE 03:33:01 27° ENE 03:35:23 10° NE
BREEZE-M DEB (TANK) 4.1 03:37:52 63° ESE 03:37:52 63° ESE 03:47:54 10° ESE
Cosmos 2082 4.3 03:53:58 54° NE 03:53:58 54° NE 03:58:24 10° NNE
USA 215 3.4 03:56:12 10° SE 04:01:23 58° SSE 04:01:23 58° SSE
CENTAUR R/B 3.5 03:55:31 10° NW 04:03:05 59° NE 04:11:14 10° SE
Cosmos 1727 Rocket 4.1 04:04:16 70° SE 04:04:44 73° E 04:11:04 10° NNE
RESURS DK-1 4.3 04:07:23 27° NE 04:07:23 27° NE 04:09:22 10° NNE
Cosmos 1025 Rocket 4.5 04:10:25 35° NE 04:10:25 35° NE 04:13:07 10° NNE
IRS-1D 4.4 04:08:38 10° N 04:12:12 41° N 04:12:12 41° N
CZ-2C R/B 4.5 04:18:11 32° SE 04:19:59 51° ENE 04:24:32 10° N
CZ-4B R/B 4.4 04:17:31 10° NNE 04:22:37 40° E 04:26:34 16° SSE
CZ-2D R/B 2.7 04:19:21 10° N 04:23:15 46° NNW 04:23:15 46° NNW
Cosmos 1898 Rocket 4.1 04:29:39 42° SSE 04:31:05 55° ESE 04:36:16 10° NNE
Cosmos 1153 Rocket 4.4 04:26:33 10° NNW 04:32:53 73° W 04:34:27 52° SSW
Resurs 1-4 Rocket 2.8 04:31:21 10° N 04:35:23 41° NW 04:35:23 41° NW
Cosmos 724 4.3 04:36:28 63° W 04:37:02 66° WSW 04:43:12 10° SSE
Lacrosse 5 rocket 3.4 04:37:13 20° NNW 04:37:29 21° NNW 04:40:52 10° NE
SL-16 R/B 4.0 04:41:34 20° NW 04:41:34 20° NW 04:43:45 10° NNW
Cosmos 1339 Rocket 4.4 04:37:17 54° SSW 04:38:47 75° W 04:45:13 10° N
Cosmos 1937 Rocket 4.4 04:36:06 25° SSE 04:38:47 46° ESE 04:43:50 10° NNE
Meteor 2-4 Rocket 3.8 04:38:08 42° S 04:40:16 85° E 04:46:15 10° NNE
Meteor 1-19 Rocket 4.0 04:40:29 68° WSW 04:40:55 72° WNW 04:46:31 10° N
SL-16 R/B 2.0 04:36:29 10° NNW 04:42:09 68° WSW 04:47:46 10° SSE
Cosmos 2098 Rocket 4.3 04:38:53 10° N 04:42:50 45° E 04:47:49 10° SSE
NOSS 3-4 (A) 3.8 04:43:54 46° WNW 04:44:55 50° NW 04:51:22 10° NNE
NOSS 3-4 (C) 3.8 04:43:59 47° WNW 04:45:01 51° NW 04:51:29 10° NNE
Meteor 2-9 Rocket 4.1 04:39:19 10° NNW 04:45:01 85° WSW 04:50:50 10° S
DELTA 2 R/B (1) 4.0 04:46:14 43° S 04:46:40 44° S 04:51:56 10° ESE
Okean O Rocket 1.5 04:45:23 10° NNE 04:49:49 84° ESE 04:50:22 68° S
ARIANE 5 R/B 3.8 04:46:16 10° N 04:49:13 25° NW 04:49:13 25° NW
MOS 1-B 4.4 04:47:15 10° N 04:52:54 57° WNW 04:53:53 50° WSW
BREEZE-M DEB (TANK) 3.1 04:53:01 59° SSE 04:53:02 59° SSE 04:55:38 10° ENE
Cosmos 2227 Rocket 2.7 04:53:25 40° WNW 04:53:36 40° NW 04:58:57 10° NNE
Meteor 1-23 Rocket 4.1 04:52:39 37° SSW 04:55:00 82° WNW 05:00:46 10° N
MOZ.5/SAFIR/RUBIN 5/SL-8 4.3 04:56:17 43° NW 04:56:17 43° NW 04:59:49 10° NNW
Cosmos 2297 Rocket 2.5 05:01:18 43° W 05:02:08 46° WNW 05:07:36 10° NNE
Cosmos 1892 Rocket 3.5 05:01:48 62° WSW 05:02:15 67° W 05:06:44 10° N
CZ-4B R/B 3.1 04:58:06 10° NNE 05:02:34 86° ESE 05:04:41 32° S
Cosmos 2228 2.9 04:58:12 10° N 05:02:38 88° E 05:06:59 10° S
Cosmos 192 4.3 05:00:45 10° NNW 05:05:45 85° ENE 05:10:39 10° SSE
Cosmos 2100 Rocket 4.0 05:07:13 10° NNW 05:13:18 57° W 05:19:27 10° SSW
Lacrosse 5 2.8 05:12:13 30° WNW 05:13:37 36° NNW 05:18:18 10° NE
Okean 2 3.6 05:16:05 48° W 05:16:14 48° WNW 05:20:15 10° N
Cosmos 1802 Rocket 3.9 05:12:30 10° NNW 05:18:35 64° W 05:24:37 10° S
Cosmos 1812 Rocket 4.1 05:17:13 10° N 05:21:39 60° E 05:26:03 10° SSE
Cosmos 1943 4.2 05:16:38 10° NNW 05:22:04 47° ENE 05:27:29 10° SE
Cosmos 2061 Rocket 4.1 05:16:14 10° NNW 05:22:22 54° W 05:28:32 10° SSW
Cosmos 1725 Rocket 4.1 05:17:00 10° N 05:23:21 82° E 05:29:35 10° S
ADEOS II 2.3 05:21:15 10° NNE 05:26:32 73° ESE 05:31:47 10° S
Cosmos 1346 Rocket 3.8 05:27:35 29° WNW 05:27:35 29° WNW 05:30:44 10° N
CZ-4B DEB 4.2 05:23:29 10° N 05:28:55 64° WNW 05:34:08 11° SSW
Cosmos 1603 3.6 05:24:20 10° NNW 05:30:04 74° WSW 05:35:43 10° SSE
Cosmos 2263 Rocket 4.3 05:29:09 10° SSE 05:33:42 26° ESE 05:38:16 10° NE
SOZ 3.8 05:33:39 43° NW 05:34:18 75° NNE 05:36:30 10° ESE
Cosmos 990 Rocket 3.9 05:30:49 12° SSW 05:35:38 77° WNW 05:40:54 10° NNE
AVUM R/B 3.1 05:35:54 16° NNW 05:37:36 53° ENE 05:39:50 10° SE
ADEOS Rocket 3.2 05:34:47 10° N 05:41:50 66° WNW 05:48:08 10° SSW
Genesis I 3.1 05:40:15 21° SW 05:42:51 82° NW 05:46:53 10° NE
Cosmos 2016 Rocket 4.2 05:37:04 10° NNW 05:43:09 50° W 05:49:09 10° SSW
RESURS DK-1 4.2 05:43:20 15° NW 05:43:47 15° NW 05:46:14 10° N
Cosmos 1048 Rocket 4.5 05:38:43 10° NNW 05:43:49 62° ENE 05:48:53 10° SSE
Cosmos 2058 Rocket 4.1 05:42:23 10° NW 05:45:51 23° W 05:46:15 23° W
USA 215 4.3 05:41:34 10° S 05:46:27 22° WSW 05:48:47 18° W
USA 116 4.1 05:43:11 10° S 05:48:02 60° WSW 05:52:22 10° NNW
Cosmos 1269 Rocket 4.1 05:45:05 10° NNW 05:50:24 81° ENE 05:55:42 10° SSE
EXPRESS MD2 4.4 05:51:19 22° WSW 05:52:51 30° SSW 05:57:59 10° SSE
Cosmos 1174 4.3 05:52:40 24° WSW 05:52:53 24° WSW 05:55:40 10° S
Cosmos 1766 4.5 05:49:29 10° N 05:53:22 46° ENE 05:57:12 10° SSE
CENTAUR R/B 3.4 05:46:29 10° NW 05:53:46 43° WSW 06:01:27 10° S
Tiangong 1 2.0 05:52:48 24° WSW 05:53:53 32° SSW 05:56:38 10° SE
Thor Agena Rocket 4.0 05:49:57 10° SSW 05:54:51 38° W 05:59:47 10° NNW
Cosmos 1515 3.8 05:52:04 10° SSW 05:55:48 51° WNW 05:59:32 10° N
COSMO-SKYMED 1 3.4 05:53:36 10° SSE 05:57:49 56° ENE 06:02:06 10° N
Cosmos 1825 Rocket 4.3 05:53:39 10° S 05:57:56 57° E 06:02:14 10° NNE
Meteor 1-31 Rocket 2.8 05:54:14 10° NNE 05:58:10 85° ESE 06:02:07 10° SSW
Okean-O 2.7 05:56:12 10° N 06:00:34 55° WNW 06:04:53 10° SSW
Cosmos 1340 2.6 05:58:47 10° S 06:02:35 87° W 06:06:25 10° N
CZ-4B R/B 3.9 05:58:19 10° N 06:03:05 32° WNW 06:07:54 10° SW
Cosmos 2123 Rocket 4.1 06:00:31 10° SSW 06:06:32 54° WNW 06:12:36 10° N
NOSS 2-2 (D) 3.9 06:04:35 13° WSW 06:08:13 51° NW 06:13:09 10° NNE
Meteor PRIRODA 4.0 06:05:06 10° N 06:08:40 44° WNW 06:12:12 10° SW
Cosmos 1626 Rocket 4.2 06:07:22 10° SW 06:11:21 34° WNW 06:15:21 10° N
Lacrosse 5 rocket 3.5 06:14:45 10° NW 06:18:06 20° N 06:21:21 10° ENE
NOSS 5 (C) 4.2 06:15:08 10° SW 06:18:26 68° NW 06:21:33 10° NE
Cosmos 1125 Rocket 3.5 06:14:26 10° SSW 06:19:38 79° WNW 06:24:53 10° NNE
BREEZE M DEB (TANK) 4.1 06:16:21 10° WNW 06:20:16 62° N 06:34:53 10° E
Radarsat Rocket 4.3 06:13:37 10° NNE 06:20:21 80° ESE 06:26:22 10° SSW
NOSS 2-2 (C) 4.3 06:19:42 10° WSW 06:23:45 40° NW 06:28:34 10° NNE
NOSS 2-2 (E) 4.5 06:20:33 10° WSW 06:24:37 37° NW 06:29:32 10° NNE
Okean O Rocket 3.5 06:23:53 10° NW 06:25:32 12° WNW 06:27:10 10° W
CZ-4B R/B 4.0 06:23:18 10° N 06:27:03 46° WNW 06:30:38 10° SW
Cosmos 1842 3.6 06:26:12 10° S 06:30:03 73° E 06:33:57 10° NNE
Cosmos 1953 Rocket 3.6 06:26:55 10° S 06:31:23 87° WNW 06:35:55 10° N
DELTA 2 R/B (1) 4.3 06:27:23 10° W 06:32:37 42° S 06:37:51 10° ESE
Cosmos 1953 2.9 06:30:28 10° N 06:34:27 63° E 06:38:26 10° SSE
